Flag for U.S.A. Weather past 2 weeks in Rancho Cucamonga, California, U.S.A.

Now
63 °F

Passing clouds.


Feels Like: 63 °F
Forecast: 43 / 72 °F
Wind: 8 mph from West

Location: Ontario International Airport

Current Time: Mar 4, 2015 at 7:47:13 PM

Latest Report: Mar 4, 2015 at 6:53 PM


Visibility: 10 mi

Pressure: 30.09 "Hg

Humidity: 34%

Dew point: 34 °F

Location of Rancho CucamongaLocation

Historic Weather in Rancho Cucamonga — Graph

°F

Rancho Cucamonga temperature yesterday

Maximum temperature yesterday: 63 °F (at 2:53 PM)
Minimum temperature yesterday: 44 °F (at 3:53 AM)
Average temperature yesterday: 53 °F

Past Weeks' High & Low Weather Summary

 TemperatureHumidityPressure
High78 °F (Feb 18, 1:53 PM)100% (Feb 18, 6:53 AM)30.23 "Hg (Feb 18, 6:53 AM)
Low42 °F (Feb 24, 5:53 AM)19% (Feb 24, 2:53 PM)29.74 "Hg (Feb 27, 6:53 PM)
Average56 °F67%29.96 "Hg
* Reported Feb 17 5:53 PM — Mar 4 5:53 PM, Rancho Cucamonga, Weather by CustomWeather, © 2015

Note: Actual official high and low records may vary slightly from our data, if they occured in-between our weather recording intervals... More about our weather records

Advertising

Rancho Cucamonga weather history for previous 24 hours

 ConditionsComfort  
Time TempWeatherWind HumidityBarometerVisibility
5:53 PM
Wed, Mar 4
67 °FPassing clouds.6 mph24%30.07 "Hg10 mi
4:53 PM68 °FPassing clouds.9 mph22%30.05 "Hg10 mi
3:53 PM70 °FPassing clouds.No wind20%30.04 "Hg10 mi
2:53 PM70 °FPassing clouds.5 mph21%30.04 "Hg10 mi
1:53 PM69 °FPassing clouds.5 mph22%30.04 "Hg10 mi
12:53 PM68 °FPassing clouds.3 mph23%30.06 "Hg10 mi
11:53 AM66 °FPassing clouds.No wind24%30.07 "Hg10 mi
10:53 AM65 °FPassing clouds.5 mph28%30.06 "Hg10 mi
9:53 AM63 °FPassing clouds.6 mph33%30.07 "Hg10 mi
8:53 AM58 °FPassing clouds.6 mph56%30.06 "Hg10 mi
7:53 AM59 °FSunny.12 mph29%30.03 "Hg10 mi
6:53 AM54 °FSunny.8 mph41%30.00 "Hg10 mi
5:53 AM46 °FPassing clouds.7 mph77%30.00 "Hg10 mi
4:53 AM45 °FPassing clouds.No wind80%29.98 "Hg10 mi
3:53 AM47 °FPassing clouds.No wind77%29.97 "Hg10 mi
2:53 AM48 °FOvercast.No wind77%29.96 "Hg10 mi
1:53 AM49 °FPassing clouds.No wind74%29.97 "Hg10 mi
12:53 AM47 °FClear.3 mph77%29.97 "Hg10 mi
11:53 PM
Tue, Mar 3
49 °FClear.3 mph77%29.96 "Hg10 mi
10:53 PM51 °FClear.3 mph71%29.96 "Hg10 mi
9:53 PM51 °FPassing clouds.No wind71%29.95 "Hg10 mi
8:53 PM53 °FPassing clouds.No wind66%29.94 "Hg10 mi
7:53 PM53 °FPassing clouds.6 mph64%29.91 "Hg10 mi
Weather by CustomWeather, © 2015

See weather overviewHow to use our weather pages